Home > Weather > Oradea > Past weeks

Flag for Romania Past Weather in Oradea, Romania — Yesterday and Last 2 Weeks

Now
64 °F

Clear.


Feels Like: 64 °F
Forecast: 64 / 79 °F
Wind: 9 mph from East

Location: Oradea Airport

Current Time: May 29, 2016 at 3:12:28 AM

Latest Report: May 29, 2016 at 2:00 AM


Visibility: N/A

Pressure: 29.89 "Hg

Humidity: 68%

Dew Point: 54 °F

Location of OradeaLocation

Past Weather in Oradea — Graph

°F

Oradea Temperature Yesterday

Maximum temperature yesterday: 82 °F (at 3:00 PM)
Minimum temperature yesterday: 55 °F (at 5:00 AM)
Average temperature yesterday: 72 °F

High & Low Weather Summary for the Past Weeks

 TemperatureHumidityPressure
High82 °F (May 23, 4:30 PM)94% (May 14, 7:00 PM)30.09 "Hg (May 14, 7:00 PM)
Low41 °F (May 17, 5:00 AM)23% (May 23, 6:00 PM)29.50 "Hg (May 14, 5:30 AM)
Average62 °F65%29.90 "Hg
* Reported May 14 2:00 AM — May 29 2:00 AM, Oradea, Weather by CustomWeather, © 2016

Note: Actual official high and low records may vary slightly from our data, if they occured in-between our weather recording intervals... More about our weather records

Advertising

Oradea Weather History for the Previous 24 Hours

Scroll right to see more
 ConditionsComfort  
Time TempWeatherWind HumidityBarometerVisibility
2:00 AM
Sun, May 29
64 °FMild.9 mph68%29.89 "HgN/A
1:00 AM66 °FMild.6 mph68%29.92 "HgN/A
12:00 AM68 °FMild.7 mph64%29.92 "HgN/A
11:00 PM
Sat, May 28
68 °FMild.6 mph69%29.92 "HgN/A
10:30 PM68 °FMild.5 mph69%29.92 "HgN/A
10:00 PM70 °FMild.5 mph60%29.92 "HgN/A
9:30 PM73 °FSprinkles. Cloudy.3 mph50%29.92 "HgN/A
9:00 PM77 °FSunny.5 mph42%29.92 "Hg10 mi
8:30 PM79 °FSunny.5 mph39%29.92 "Hg10 mi
8:00 PM79 °FPassing clouds.6 mph37%29.92 "HgN/A
7:30 PM81 °FPassing clouds.5 mph39%29.92 "HgN/A
7:00 PM81 °FSunny.7 mph39%29.92 "Hg10 mi
6:30 PM81 °FPassing clouds.5 mph34%29.92 "HgN/A
6:00 PM81 °FPassing clouds.8 mph34%29.95 "HgN/A
5:30 PM82 °FSunny.3 mph32%29.95 "Hg10 mi
5:00 PM82 °FPassing clouds.6 mph30%29.95 "HgN/A
4:30 PM82 °FPassing clouds.3 mph30%29.95 "HgN/A
4:00 PM82 °FPassing clouds.5 mph30%29.95 "HgN/A
3:30 PM81 °FPassing clouds.5 mph32%29.98 "HgN/A
3:00 PM82 °FSunny.6 mph35%29.98 "Hg10 mi
2:30 PM81 °FSunny.5 mph39%29.98 "Hg10 mi
2:00 PM81 °FSunny.3 mph32%30.01 "Hg10 mi
1:30 PM79 °FSunny.3 mph39%30.01 "Hg10 mi
1:00 PM79 °FPassing clouds.3 mph39%30.01 "HgN/A
12:30 PM79 °FSunny.3 mph39%30.01 "Hg10 mi
12:00 PM79 °FSunny.3 mph42%30.01 "Hg10 mi
11:30 AM77 °FPassing clouds.3 mph47%30.01 "HgN/A
11:00 AM75 °FSunny.1 mph50%30.01 "Hg10 mi
10:30 AM73 °FSunny.2 mph53%30.04 "Hg10 mi
10:00 AM72 °FPassing clouds.3 mph57%30.04 "HgN/A
9:30 AM70 °FPassing clouds.5 mph60%30.04 "HgN/A
9:00 AM68 °FPassing clouds.7 mph64%30.01 "HgN/A
8:30 AM64 °FSunny.8 mph68%30.01 "Hg10 mi
8:00 AM63 °FSunny.8 mph68%30.01 "Hg10 mi
7:30 AM61 °FSunny.9 mph72%30.01 "Hg10 mi
7:00 AM59 °FSunny.8 mph77%30.01 "Hg10 mi
6:30 AM57 °FClear.8 mph82%30.01 "Hg10 mi
6:00 AM57 °FClear.7 mph77%30.01 "Hg10 mi
5:30 AM57 °FClear.7 mph82%30.01 "Hg10 mi
5:00 AM55 °FClear.8 mph88%30.01 "Hg10 mi
4:00 AM57 °FCool.7 mph82%30.01 "HgN/A
3:00 AM61 °FCool.7 mph77%30.04 "HgN/A
Weather by CustomWeather, © 2016

See weather overviewHow to use our weather pages